www.pogodaiklimat.ru

Погода и климат >> Архив погоды >> Ирак >> Karbalaa


ПОГОДА в Karbalaa

  • Прогноз погоды в Karbalaa
  • Монитор погоды в Karbalaa
  • Климат города

АРХИВ ПОГОДЫ в Karbalaa

Время (UTC), дата Ветер
(напр.,м/с)
 
Видим.   Явления Облачность Т
(С)
Тd
(С)
f
(%)
Тe
(С)
Тes
(С)
Комфортность P
(гПа)
Po
(гПа)
Тmin
(С)
Tmax
(С)
R
(мм)
R24
(мм)
S
(см)
21 12.09 штиль 0 10 км ясно +33.4 +11.3 26 +33 +33 жарко 1009.4 1009.0
03 13.09 З 2 10 км ясно +29.2 +8.2 27 +29 +29 жарко 1009.4 1009.0
06 13.09 СЗ 2 10 км ясно +34.6 +9.1 21 +33 +41 жарко 1010.2 1010.0 +29.0
09 13.09 СЗ 5 10 км ясно +43.4 +4.0 9 +40 +49 очень
жарко
1009.0 1009.0
12 13.09 СВ 9 10 км ясно +45.4 +3.7 8 +42 +43 опасность
перегрева
1007.4 1007.0
15 13.09 СВ 4 10 км ясно +42.6 +7.3 12 +40 +40 очень
жарко
1006.3 1006.0
18 13.09 С 3 10 км ясно +38.4 +9.3 17 +37 +37 очень
жарко
1006.8 1007.0 +45.8
21 13.09 С 2 10 км ясно +33.4 +9.7 23 +32 +32 жарко 1006.0 1006.0
06 14.09 С 2 10 км ясно +32.5 +10.6 26 +32 +40 жарко 1006.3 1006.0 +28.6
09 14.09 С 2 10 км ясно +44.4 +5.8 10 +42 +58 опасность
перегрева
1005.5 1006.0
12 14.09 С 2 10 км ясно +46.6 +6.9 10 +44 +53 опасность
перегрева
1004.1 1004.0
15 14.09 С 2 10 км ясно +43.5 +10.5 14 +42 +42 опасность
перегрева
1004.4 1004.0
18 14.09 штиль 0 10 км ясно +38.0 +13.9 24 +38 +38 очень
жарко
1005.3 1005.0 +46.8
21 14.09 С 3 10 км ясно +34.8 +12.1 25 +35 +35 очень
жарко
1005.6 1006.0
03 15.09 С 2 10 км ясно +29.4 +14.8 41 +32 +32 душно 1007.6 1008.0
09 15.09 СЗ 4 5000 м пыль ясно +31.2 +13.2 33 +32 +43 жарко 1008.9 1009.0 +29.0
12 15.09 С 3 10 км ясно +40.5 +10.1 16 +39 +46 очень
жарко
1007.6 1008.0
03 16.09 СЗ 2 10 км ясно +27.8 +11.4 36 +29 +29 жарко 1009.6 1010.0
21 16.09 штиль 0 10 км ясно +32.0 +11.3 28 +32 +32 жарко 1008.0 1008.0
03 17.09 штиль 0 10 км ясно +28.8 +9.2 29 +29 +29 жарко 1007.8 1008.0
09 17.09 С 4 6000 м пыль ясно +39.0 +9.2 17 +37 +48 очень
жарко
1007.5 1008.0
15 17.09 штиль 0 10 км ясно +39.8 +13.0 20 +39 +39 очень
жарко
1005.5 1006.0
21 17.09 СЗ 2 10 км ясно +33.0 +13.8 31 +34 +34 очень
жарко
1005.8 1006.0
03 18.09 штиль 0 10 км ясно +29.5 +13.2 37 +31 +31 жарко 1006.3 1006.0
09 18.09 СВ 2 10 км ясно +41.4 +13.2 19 +41 +57 опасность
перегрева
1006.5 1007.0
15 18.09 В 3 10 км 5/3 840 м
[Cu hum Ac trans]
+40.3 +15.3 23 +41 +41 опасность
перегрева
1004.4 1004.0
21 18.09 В 2 10 км 5/5 900 м
[Sc]
+34.8 +11.6 25 +35 +35 очень
жарко
1004.7 1005.0
03 19.09 штиль 0 10 км 5/5 900 м
[Sc]
+29.6 +13.8 38 +31 +31 жарко 1005.2 1005.0
06 19.09 штиль 0 10 км 5/5 900 м
[]
+33.5 +13.4 30 +34 +40 очень
жарко
1001.6 1002.0 +29.4
09 19.09 штиль 0 10 км 5/5 900 м
[]
1005.6 1006.0
15 19.09 штиль 0 10 км 4/4 900 м
[Cu hum]
+41.5 +2.4 9 +38 +38 очень
жарко
1004.5 1005.0

 

Местоположение метеостанции Karbalaa (Ирак): широта 32.62 долгота 44.02 высота над уровнем моря 29 м.

В архиве по умолчанию представлена погода в Karbalaa за последнюю неделю. Архивные данные за месяц целиком и за предыдущие месяцы, начиная с января 2011 года, Вы можете получить, выбрав интересующий диапазон дат из раскрывающегося списка и нажав кнопку "Ввод!".


*Определитесь, кто Вы:
робот инопланетянин человек

Внимание! Время в таблицах - всемирное. Для получения местного времени необходимо прибавить поправку, которая в Karbalaa равна 3 ч.

Смотрите также архив погоды в соседних городах и на ближайших метеорологических станциях:

Погода в Hella (Ирак) (45 км)
Погода в Baghdad (Ирак) (71 км)
Погода в Najaf (Ирак) (77 км)
Погода в Azizyah (Ирак) (104 км)
Погода в Ramadi (Ирак) (113 км)
Погода в Diwaniya (Ирак) (115 км)
Погода в Heet (Ирак) (115 км)
Погода в Ayn Al-Tamar (Ирак) (122 км)
Погода в Al-Khalis (Ирак) (143 км)
Погода в Ubaydah Bin Al Jarrah (Ирак) (163 км)

Пояснения к столбцам:

Ветер - указаны скорость ветра в м/с - средняя за 10 мин, порывы в срок и между сроками (в фигурных скобках) и направление, откуда дует ветер: С - северный, СВ - северо-восточный, В - восточный, ЮВ - юго-восточный, Ю - южный, ЮЗ - юго-западный, З - западный, СЗ - северо-западный.
Видимость - горизонтальная дальность видимости в метрах или километрах. При видимости от 1 до 10 км при отсутствии осадков обычно наблюдается дымка, при ухудшении видимости до 1 км и менее - туман. В сухую погоду видимость может ухудшаться дымом, пылью или мглою.
Явления - указаны атмосферные явления, наблюдавшиеся в срок или в последний час перед сроком; фигурными скобками обозначены явления, наблюдавшиеся между сроками (за 1-3 часа до срока); квадратными скобками обозначены град или гололедные отложения с указанием их диаметра в мм.
Облачность - указаны через наклонную черту общая и нижняя облачность в баллах и высота нижней границы облаков в метрах; квадратными скобками обозначены формы облаков: Ci - перистые, Cs - перисто-слоистые, Cc - перисто-кучевые, Ac - высококучевые, As - высокослоистые, Sc - слоисто-кучевые, Ns - слоисто-дождевые, Cu - кучевые, Cb - кучево-дождевые. Подробнее классификацию облаков см. в Атласе облаков (PDF).
T - Температура воздуха - температура, измеренная на высоте 2 м над землей.
Td - Температура точки росы - температура, при понижении до которой содержащийся в воздухе водяной пар достигнет насыщения.
f - Относительная влажность воздуха - влажноcть воздуха, измеренная на высоте 2 м над землей.
Te - Эффективная температура - температура, которую ощущает одетый по сезону человек в тени. Характеристика душности погоды. При расчете учитывается влияние влажности воздуха и скорости ветра на теплоощущения человека.
Tes - Эффективная температура на солнце - температура, которую ощущает человек, с поправкой на солнечный нагрев. Характеристика знойности погоды. Зависит от высоты солнца над горизонтом, облачности и скорости ветра. Ночью, в пасмурную погоду, а также при ветре 12 м/с и более поправка равна нулю.
P - Атмосферное давление - приведенное к уровню моря атмосферное давление.
Po - Атмосферное давление - измеренное на уровне метеостанции атмосферное давление.
Tmin - Минимальная температура - минимум температуры воздуха на высоте 2 м над землей.
Tmax - Максимальная температура - максимум температуры воздуха на высоте 2 м над землей.
R - Количество осадков - Количество выпавших осадков за период времени, мм. При наведении курсора мыши на число - период времени, за который выпало указанное количество осадков.
R24 - Количество осадков - Количество выпавших осадков за 24 часа, мм.
S - Снежный покров - Высота снежного покрова, см. При наведении курсора мыши на число - состояние снежного покрова и степень покрытия местности в баллах.